GEFSGL_con_probscp_264.txt.gz
Probability
24 22 19 18 19 19 18 14 7 3 2 2 2 3 4 5 7 7 5 4 2 1 0 0 0 0 0 0 0 1 2 3 2 1 0 0 0 0 0 0 0 0 0
26 25 23 20 18 16 15 12 8 5 5 4 3 3 4 4 5 7 7 6 4 2 1 1 1 0 0 0 0 1 2 3 2 1 0 0 0 0 0 0 0 0 0
30 31 28 22 17 15 13 11 8 7 7 6 5 5 4 4 5 7 9 8 6 4 3 3 3 2 1 0 0 0 1 2 1 0 0 0 0 0 0 0 0 0 0
36 36 31 24 20 17 13 11 9 8 8 7 7 7 7 7 6 8 8 7 5 3 3 4 5 4 2 1 0 0 0 0 0 0 0 0 0 0 0 0 0 0 0
40 38 32 26 22 18 14 11 10 8 7 7 8 9 10 9 7 5 4 4 3 3 3 4 4 4 2 2 1 1 0 0 0 0 0 0 0 0 0 0 0 0 0
39 37 31 25 22 20 17 15 12 10 9 8 9 10 8 7 4 2 1 1 2 3 3 4 5 5 4 4 3 1 0 0 0 0 0 0 0 0 0 0 0 0 0
37 35 31 27 25 24 23 21 18 16 13 10 9 8 6 4 3 1 0 1 2 3 4 5 6 7 6 5 4 1 0 0 0 0 0 0 0 0 0 0 0 0 0
38 36 32 30 29 28 26 25 23 22 18 12 10 9 7 4 3 1 0 1 2 2 3 4 6 6 6 4 3 2 1 0 0 0 0 0 0 0 0 0 0 0 0
39 37 33 29 28 27 26 25 24 22 20 17 14 12 9 6 3 1 1 1 1 1 1 2 4 4 3 2 1 1 1 0 0 0 0 0 0 0 0 0 0 0 0
38 35 30 25 23 22 23 23 22 21 21 20 18 14 11 8 5 3 2 3 2 1 0 0 1 1 1 0 0 1 0 0 0 0 0 0 0 0 0 0 0 0 0
32 30 26 21 18 18 20 20 19 19 19 18 16 13 10 9 7 4 3 3 3 2 1 0 0 0 0 0 0 1 0 0 0 0 0 0 0 0 0 0 0 0 0
24 24 22 18 16 16 17 18 17 16 16 15 13 11 9 9 8 5 3 3 3 3 2 1 0 0 0 0 0 0 0 0 0 0 0 0 0 0 0 0 0 0 0
16 17 15 14 13 14 14 15 15 15 15 14 13 11 10 9 9 6 3 2 2 2 2 1 0 0 0 0 0 0 0 0 1 1 1 0 0 0 0 0 0 0 0
13 11 9 9 11 12 11 11 12 13 14 15 14 13 11 10 9 8 5 3 2 1 1 0 0 0 0 0 1 1 1 1 1 2 1 0 0 0 0 0 0 0 0
10 8 6 6 9 10 9 8 9 10 11 12 13 13 12 11 9 8 6 4 2 2 1 1 1 1 0 0 1 2 2 1 1 1 1 0 0 0 0 0 0 0 0
7 6 5 6 6 7 7 7 7 8 8 8 9 10 11 11 8 5 3 2 1 1 1 2 2 2 1 1 1 2 1 1 0 0 0 0 0 0 0 0 0 0 0
5 4 4 4 4 5 6 6 6 6 6 5 4 6 7 7 4 1 0 0 0 0 1 2 3 3 2 2 2 2 2 1 1 0 0 0 0 0 0 0 0 0 0
5 4 3 3 3 4 5 6 5 6 7 6 4 3 2 2 1 0 0 0 0 0 1 2 3 3 3 3 3 3 3 3 2 1 1 1 1 1 0 0 0 0 0
4 3 3 3 3 3 4 5 4 5 6 6 5 3 1 0 0 0 0 0 1 1 1 2 3 3 3 3 3 3 3 3 3 3 2 2 2 2 1 0 0 0 0
4 3 2 2 3 3 3 4 5 4 4 5 5 4 2 1 1 0 0 1 2 2 1 2 2 3 3 3 3 3 3 3 3 3 3 3 3 2 1 0 0 0 0
5 4 3 3 3 3 3 4 5 4 4 4 5 4 3 2 2 1 1 1 3 3 2 1 1 1 2 2 3 3 3 3 3 3 3 2 2 2 1 0 0 0 0
5 4 3 3 3 3 3 3 4 4 4 4 5 5 2 2 3 3 2 2 3 4 3 2 1 1 1 2 2 3 3 3 3 2 1 1 1 1 0 0 0 0 0
4 3 2 2 2 2 2 2 3 3 3 4 5 4 2 1 2 2 2 2 3 3 3 3 3 2 2 2 2 3 3 2 1 1 0 0 0 0 0 0 0 0 0
1 1 1 1 1 1 1 1 1 2 3 3 4 4 2 1 1 1 2 2 2 2 2 2 2 2 2 1 1 2 2 1 0 0 0 0 0 0 0 0 0 0 0
0 0 0 0 0 0 0 0 0 1 3 3 3 3 2 1 0 1 2 2 1 1 1 1 1 1 1 0 0 1 1 0 0 0 0 0 0 0 0 0 0 0 0
0 0 0 0 0 0 0 0 0 1 2 3 3 3 2 1 0 1 1 1 0 0 0 0 0 0 0 0 0 0 0 0 0 0 0 0 0 0 0 0 0 0 0

GEFSGL_con_probscp_270.txt.gz
Probability
2 2 2 2 4 6 6 6 5 4 3 3 3 4 4 4 4 3 2 2 1 0 0 0 1 1 0 0 1 2 2 2 1 0 0 0 0 0 0 0 0 0 0
2 1 1 2 3 5 5 5 4 4 4 4 4 4 4 4 3 3 2 1 0 0 1 1 2 1 0 0 0 1 2 2 1 0 0 0 0 0 0 0 0 0 0
2 2 3 4 4 3 3 3 4 4 4 5 5 5 5 4 3 3 1 0 0 1 2 2 2 1 0 0 0 1 3 3 1 0 0 0 0 0 0 0 0 0 0
4 5 7 7 6 5 4 4 5 4 4 5 6 6 5 4 4 2 1 1 1 1 2 2 1 0 0 1 2 4 6 5 2 0 0 0 0 0 0 0 0 0 0
8 8 9 9 9 8 8 7 6 6 6 5 5 4 4 4 4 2 2 2 2 1 1 1 0 0 0 1 3 5 7 6 3 1 0 0 0 0 0 0 0 0 0
15 13 11 10 11 11 10 9 8 8 8 6 5 4 3 3 3 3 3 4 3 3 3 2 1 1 1 1 2 3 5 5 2 1 0 0 0 0 0 0 0 0 0
20 17 14 14 14 13 11 9 10 10 10 8 7 6 5 4 3 3 3 4 3 3 4 4 3 3 3 3 2 1 2 2 1 0 0 0 0 0 0 0 0 0 0
23 19 17 17 17 15 12 10 11 12 12 11 10 9 8 6 4 3 3 3 3 3 3 4 4 4 3 4 3 2 0 0 0 0 0 0 0 0 0 0 0 0 0
27 23 21 20 19 17 14 12 12 12 13 13 12 12 10 7 4 3 2 2 2 3 3 4 4 3 3 2 2 1 0 0 0 0 0 0 0 0 0 0 0 0 0
28 27 26 24 22 19 16 13 12 13 13 13 13 12 11 8 5 3 3 3 3 4 5 5 4 3 2 1 0 0 0 0 1 1 0 0 0 0 0 0 0 0 0
26 26 25 23 22 19 16 13 12 13 14 13 11 11 10 9 6 4 4 4 5 6 6 5 4 2 1 0 0 0 0 0 1 2 1 0 0 0 0 0 0 0 0
22 20 18 17 18 17 15 12 12 14 14 13 10 9 9 9 8 5 3 4 5 6 6 5 3 1 0 0 0 0 0 0 2 2 2 1 1 1 0 0 0 0 0
17 16 13 12 12 12 12 12 14 15 15 13 11 9 9 10 10 8 4 3 3 5 5 4 2 1 0 0 0 0 0 1 2 3 3 3 2 1 1 1 1 1 0
13 12 10 9 8 8 9 10 11 12 12 11 10 9 10 11 12 10 7 5 3 4 3 2 1 0 0 0 1 1 1 1 2 3 4 3 3 2 1 1 2 2 1
12 10 8 7 6 7 7 7 6 6 6 6 7 7 8 11 11 10 9 7 5 4 2 2 1 1 1 1 2 2 1 1 2 3 3 3 3 2 1 1 1 2 2
13 10 7 6 6 6 5 4 3 3 3 3 4 4 5 7 7 6 5 5 4 2 1 2 2 2 2 3 3 2 1 1 1 2 3 3 3 3 3 2 1 1 1
13 10 7 5 4 4 4 3 3 2 2 3 2 2 2 3 2 2 1 1 1 0 1 3 4 3 3 3 3 2 1 1 1 2 2 3 3 3 3 3 1 0 1
10 9 6 4 3 3 3 3 3 2 2 2 1 0 1 1 0 0 0 1 1 1 3 4 5 4 3 3 3 3 2 2 2 2 2 3 3 3 3 3 2 1 1
7 5 4 4 3 3 3 3 2 2 2 2 1 0 0 0 0 0 1 2 4 4 3 4 4 4 3 3 4 4 3 3 3 3 3 2 2 3 3 3 3 2 1
3 2 2 2 3 3 3 3 1 1 1 1 0 0 0 0 0 1 2 4 5 6 5 4 4 4 4 4 5 5 4 3 3 3 2 2 1 1 2 3 3 3 2
1 0 0 1 2 2 2 2 1 0 0 0 0 0 0 0 0 1 3 4 6 7 6 5 5 6 5 5 6 5 3 3 3 3 2 1 1 0 1 1 2 2 2
2 1 0 1 1 1 1 2 2 1 0 0 0 0 0 0 0 0 2 4 5 6 5 5 5 6 6 6 6 5 2 1 2 2 2 2 2 1 1 1 1 1 1
3 2 1 0 0 0 0 1 1 2 1 1 0 0 0 0 0 0 1 2 4 4 3 3 4 4 5 6 5 3 1 0 1 1 2 2 2 2 2 2 1 0 0
3 3 2 0 0 0 0 0 1 2 3 2 1 0 0 0 0 0 0 1 2 3 3 3 3 3 4 4 3 1 0 0 0 0 1 1 1 1 1 1 1 0 0
1 2 1 0 0 0 0 0 2 3 3 3 2 0 0 0 0 0 0 0 1 3 3 3 3 3 3 3 1 0 0 0 0 0 0 0 0 0 0 0 0 0 0
0 1 0 0 0 0 0 0 1 3 3 3 1 0 0 0 0 0 0 0 1 2 3 3 3 3 3 2 1 0 0 0 0 0 0 0 0 0 0 0 0 0 0

GEFSGL_con_probscp_276.txt.gz
Probability
8 6 5 8 11 11 9 8 8 9 8 6 5 4 3 3 4 5 5 6 7 6 4 5 5 5 7 10 12 12 12 13 11 7 8 9 8 4 3 4 4 4 4
9 7 7 9 10 11 10 9 8 7 7 6 5 4 3 3 3 4 4 5 6 5 4 4 4 4 6 9 10 12 13 13 11 9 9 10 9 7 6 5 4 3 2
9 9 9 9 9 9 9 8 7 7 7 7 6 4 3 3 3 4 4 5 6 5 4 4 4 4 6 8 9 10 12 12 11 11 12 11 10 9 8 6 4 3 3
12 13 12 11 10 9 8 7 7 7 8 9 8 5 3 3 3 4 5 6 6 5 5 5 5 5 6 7 7 8 9 12 13 14 13 11 10 8 6 6 5 5 4
20 20 19 16 13 11 8 7 7 7 8 8 8 6 5 3 3 4 4 5 5 5 5 5 5 5 5 5 5 5 7 11 14 15 13 11 9 7 5 4 4 4 4
27 26 24 21 17 12 9 7 6 7 7 8 8 8 7 5 3 3 3 3 4 5 6 6 5 4 4 4 3 2 3 7 11 12 12 10 10 9 6 4 3 3 4
29 28 27 23 19 14 11 9 8 9 11 11 11 10 9 7 4 3 3 4 5 6 7 7 6 5 5 5 5 3 3 5 6 8 9 9 10 11 8 4 3 4 5
32 31 28 25 21 18 17 16 15 16 18 18 16 14 11 9 5 3 4 5 6 7 8 8 8 7 7 9 10 9 9 8 5 3 5 6 8 9 8 6 5 5 6
38 36 33 30 28 26 25 24 24 25 24 23 21 17 13 11 7 4 5 8 10 11 13 13 12 11 10 11 13 14 14 12 6 3 3 3 4 5 5 6 6 6 7
44 42 39 37 36 34 32 30 30 29 26 23 20 17 15 13 9 5 6 12 15 17 19 19 15 12 9 9 13 15 15 13 9 6 5 3 4 4 4 6 7 7 8
44 42 41 40 39 38 36 35 33 30 26 22 19 17 17 16 12 7 7 13 18 20 21 20 16 10 6 6 9 12 12 11 10 9 8 7 7 7 7 7 7 7 7
39 38 39 39 38 38 37 36 34 31 26 23 20 20 20 18 14 8 5 8 14 18 19 18 13 7 3 2 4 6 7 6 7 8 9 9 8 7 8 9 8 7 7
36 36 37 37 37 36 35 33 30 27 23 20 19 20 19 16 12 8 5 4 7 11 13 13 9 4 2 2 2 2 3 5 6 7 8 8 6 6 7 8 7 8 8
36 36 35 35 34 34 33 29 26 22 18 15 15 16 14 10 7 7 6 5 5 7 9 9 7 5 5 6 6 5 6 8 9 8 7 6 6 6 6 7 7 7 7
37 35 33 32 31 30 28 24 20 16 12 10 11 12 9 6 4 5 5 5 6 7 8 9 10 10 10 11 11 10 10 10 10 8 7 6 5 5 6 7 7 7 6
36 33 30 29 28 25 22 16 11 8 6 6 7 7 5 3 3 2 2 3 4 5 7 9 12 13 13 13 12 12 12 11 10 8 6 5 4 4 5 6 6 6 6
31 28 25 25 23 20 16 10 5 3 3 3 3 4 3 2 2 1 1 1 2 4 7 9 10 12 12 11 10 10 10 10 9 7 5 5 4 4 4 5 5 6 6
24 22 21 21 19 16 12 8 5 4 3 3 2 3 2 1 1 0 0 2 3 5 7 9 9 9 10 9 8 9 9 8 7 6 5 6 6 5 4 5 6 6 5
21 19 18 18 16 13 10 7 5 4 3 3 3 3 2 1 1 1 2 4 5 6 7 8 7 6 6 6 7 8 7 6 6 6 7 8 7 6 6 6 6 5 4
20 17 15 15 13 11 9 7 6 4 3 3 3 3 2 1 2 3 5 6 6 7 8 7 5 3 3 4 6 6 6 6 6 8 9 9 8 7 6 6 6 4 4
17 14 12 13 12 11 9 7 6 5 4 3 3 3 2 2 3 4 5 6 6 6 6 5 3 1 1 2 4 5 6 6 7 8 8 8 7 7 6 6 6 5 4
16 14 12 12 12 10 8 6 5 5 5 4 3 2 2 2 3 3 4 5 5 5 4 3 1 0 0 1 3 5 6 7 7 7 6 6 6 6 6 6 4 3 3
14 13 12 10 9 9 7 6 4 4 5 4 3 2 2 2 2 2 2 3 4 3 3 3 2 1 0 1 3 5 6 6 6 5 4 4 4 5 6 5 3 2 2
11 11 10 8 7 7 7 6 5 4 4 3 2 1 2 3 2 1 1 1 3 3 3 3 3 1 1 2 4 5 5 4 4 4 3 3 3 4 4 2 1 2 2
10 10 9 8 8 8 6 5 4 3 3 2 1 1 2 3 3 2 0 1 2 3 3 3 3 3 3 3 3 3 3 2 2 3 3 3 3 3 2 1 1 3 3
10 10 9 9 9 8 6 4 3 3 2 1 0 0 1 3 3 1 0 0 1 2 3 3 3 3 3 3 2 1 1 1 1 2 3 3 3 2 1 1 2 3 3

GEFSGL_con_probscp_282.txt.gz
Probability
27 26 24 22 19 16 15 17 17 17 16 16 13 11 9 7 5 4 2 3 5 5 5 6 5 4 4 4 4 2 1 1 1 1 2 7 11 11 9 10 10 7 6
31 28 26 25 22 19 18 18 19 18 17 16 13 10 9 7 6 5 5 5 6 6 7 8 8 6 5 5 3 2 1 2 3 2 2 6 9 10 12 12 10 6 5
35 32 28 27 24 22 21 21 21 20 16 15 13 12 12 9 7 8 9 8 6 6 8 10 10 10 8 6 4 3 2 2 3 3 4 7 8 8 9 10 8 6 4
40 36 31 29 27 25 25 25 25 22 17 14 14 16 16 12 10 11 13 12 10 9 9 10 10 11 9 7 6 5 4 4 4 5 5 8 8 6 5 6 6 7 6
43 40 36 33 31 30 30 31 31 28 21 16 16 17 16 12 9 11 14 15 15 14 11 10 10 10 8 6 5 5 6 6 6 4 4 6 7 6 5 5 5 5 5
47 44 39 36 35 35 35 35 36 33 27 21 20 20 16 10 5 6 10 14 16 16 13 10 10 10 9 7 5 3 4 5 4 3 3 4 7 7 7 6 6 4 3
50 48 43 40 39 37 37 37 38 36 31 26 24 24 20 11 4 2 5 10 14 14 13 11 11 11 11 10 8 5 4 3 2 2 4 5 7 9 9 8 7 6 5
51 49 46 45 44 41 40 40 40 38 34 30 27 26 21 13 7 4 3 7 12 15 15 14 13 12 11 12 12 10 9 7 5 3 4 6 6 8 9 9 8 7 7
51 48 47 48 47 46 44 43 43 41 37 33 29 26 20 14 11 7 4 7 13 16 17 16 14 13 12 13 15 16 15 14 10 5 3 4 4 5 7 8 8 8 9
54 52 50 50 49 48 47 46 46 45 40 34 31 27 20 16 15 10 7 11 16 17 17 15 14 13 12 12 15 16 16 15 13 8 5 5 6 6 6 8 8 9 9
58 58 55 52 49 48 48 49 49 47 42 36 32 28 23 19 18 13 9 12 16 18 17 16 14 11 9 8 11 13 13 13 13 13 11 11 11 11 10 9 10 10 10
61 60 57 52 48 46 47 48 49 48 43 37 33 29 25 22 19 14 8 7 12 15 17 16 13 8 4 3 5 8 10 11 14 15 16 15 15 14 13 12 12 11 11
61 60 55 50 46 45 44 44 46 45 42 38 34 30 27 24 20 15 8 4 5 9 13 13 9 4 1 1 2 5 8 11 15 16 16 16 14 14 14 13 12 11 11
60 57 52 47 45 44 43 41 41 41 40 37 34 31 27 23 18 13 9 5 4 6 9 9 6 3 3 4 4 5 9 13 15 16 16 15 13 12 12 12 11 10 10
55 52 47 43 41 41 39 34 31 30 29 28 27 25 22 17 12 9 7 6 7 7 7 7 6 6 6 8 8 9 12 14 15 16 16 14 12 11 12 11 10 9 9
47 44 40 38 37 36 32 26 19 15 13 12 12 12 11 8 6 5 4 4 5 5 5 6 6 7 8 9 10 11 13 14 16 16 15 14 13 12 11 10 10 9 9
42 38 34 33 33 32 29 22 16 10 6 4 4 3 2 2 2 2 2 1 2 3 4 6 7 7 8 9 10 10 11 13 14 14 14 13 13 12 11 10 10 10 10
39 35 31 30 31 29 25 21 18 15 10 6 4 2 1 1 1 1 1 1 2 3 4 6 7 8 9 9 10 10 9 9 10 11 11 11 11 10 10 10 9 9 9
36 32 29 28 27 24 20 18 18 16 13 9 6 3 2 1 0 0 1 2 3 4 5 6 7 8 9 9 9 9 7 6 6 7 8 9 9 9 9 9 8 8 7
29 26 24 24 23 20 17 16 17 16 14 11 8 5 3 1 1 1 2 3 4 5 6 6 7 7 7 8 8 6 4 3 3 4 6 7 8 7 7 7 7 7 6
21 19 18 19 19 17 16 16 16 16 14 11 9 6 3 2 2 2 4 5 5 5 6 6 6 6 6 5 5 3 2 1 2 4 5 6 6 6 4 4 5 6 6
16 15 16 17 18 16 15 16 16 15 13 12 9 6 3 1 1 3 5 5 4 4 4 5 6 6 5 4 3 2 1 1 2 4 5 6 6 4 3 3 4 4 5
14 14 16 17 17 16 15 14 13 12 12 11 9 7 3 1 1 2 3 3 3 3 3 4 4 4 4 3 3 2 1 1 3 4 5 5 5 4 3 3 3 4 5
8 9 11 14 15 15 14 13 11 10 9 10 10 7 4 1 1 1 1 1 2 3 3 3 3 3 3 3 3 2 2 2 3 4 4 3 2 2 3 2 2 4 4
4 5 7 10 13 14 14 12 11 9 7 9 9 7 4 2 2 2 1 0 1 2 2 2 2 1 1 2 2 2 1 1 2 2 3 2 2 2 2 2 2 3 3
3 4 5 8 11 14 14 12 10 8 7 8 9 7 4 2 2 2 2 1 0 1 1 1 1 0 0 1 1 1 0 0 1 1 2 2 2 2 2 2 1 2 3

GEFSGL_con_probscp_288.txt.gz
Probability
15 14 13 11 7 5 5 5 4 2 1 0 1 2 1 0 0 0 0 0 0 0 0 0 0 0 0 0 0 0 0 0 0 0 0 0 0 0 0 0 0 0 0
15 15 15 13 8 4 4 3 2 1 0 1 2 2 1 0 0 0 0 0 0 0 0 0 0 0 0 0 0 0 0 0 0 0 0 0 0 0 0 0 0 0 0
18 18 17 13 8 4 3 2 1 0 0 1 3 2 1 0 0 0 0 0 0 0 0 0 0 0 0 0 0 0 0 0 0 0 0 0 0 0 0 0 0 0 0
25 22 19 15 10 7 6 5 3 1 1 2 3 2 1 0 0 0 0 0 0 0 0 0 0 0 0 0 0 0 0 0 0 0 0 0 0 0 0 0 0 0 0
28 25 23 20 16 14 12 9 6 4 3 3 3 2 1 0 0 0 0 0 0 0 0 0 0 0 0 0 0 1 1 1 1 1 1 0 0 0 0 0 0 0 0
27 25 24 23 23 22 18 13 10 8 6 5 4 2 1 0 0 0 0 0 0 0 0 0 0 1 1 1 1 1 1 2 2 2 1 0 0 0 0 0 0 0 0
27 25 23 24 26 25 20 16 14 13 13 11 8 5 3 2 1 0 0 0 0 0 0 0 1 2 2 2 2 1 1 1 2 2 1 0 0 0 0 0 0 0 0
28 27 24 24 26 25 22 19 18 19 20 18 13 8 6 4 1 0 0 0 0 0 0 1 3 4 3 3 2 1 0 0 1 1 0 0 0 0 0 0 1 1 1
30 30 27 25 26 27 25 22 22 23 25 22 16 11 8 6 3 1 0 0 0 0 0 1 4 5 4 3 2 1 1 0 0 0 0 0 0 0 0 1 2 2 2
31 31 29 28 27 27 26 24 25 27 27 23 16 11 9 8 6 3 1 1 1 0 0 1 4 5 4 2 2 3 3 2 1 1 1 0 1 1 1 1 2 3 3
30 30 29 29 29 28 27 27 29 28 25 21 16 12 10 9 8 5 2 2 2 1 1 2 4 4 2 1 1 3 4 4 4 3 2 2 2 3 3 2 2 3 3
28 27 27 28 29 30 30 30 31 28 25 22 19 16 13 11 9 7 3 2 2 3 3 4 5 3 1 0 0 1 2 3 5 5 5 5 6 7 6 5 4 4 4
27 26 26 26 26 29 31 32 31 28 26 24 22 19 15 13 11 9 5 2 1 3 4 5 5 3 1 0 0 0 1 2 5 7 8 8 9 10 10 9 8 6 5
29 27 25 23 23 25 27 28 28 26 25 23 21 19 17 14 13 11 8 4 2 2 3 4 4 3 1 1 1 1 1 3 6 9 10 10 11 12 11 10 9 9 8
30 28 25 23 20 20 21 20 18 18 18 17 17 17 16 13 10 8 7 5 2 2 2 3 4 4 3 3 3 3 3 4 6 10 12 12 11 11 10 9 8 9 9
27 25 23 21 19 16 16 13 10 9 8 8 10 11 11 8 4 3 2 2 1 1 1 2 4 4 3 4 5 6 6 6 7 10 11 11 10 9 8 7 6 7 7
22 21 20 19 16 14 14 12 8 5 3 2 3 4 4 2 1 0 0 0 0 0 0 1 2 3 3 4 6 6 6 7 8 9 9 8 8 7 6 4 4 5 6
20 19 19 17 15 13 13 12 10 8 5 2 1 1 0 0 0 0 0 0 0 0 0 0 1 2 4 5 6 6 6 7 7 7 6 5 5 5 4 3 3 4 5
22 22 21 18 15 13 13 12 11 10 7 3 1 0 0 0 0 0 0 0 1 1 1 1 1 3 5 6 6 6 6 6 6 5 4 4 4 4 3 3 3 3 4
25 24 22 18 14 13 12 10 10 9 7 4 1 0 0 0 0 0 0 1 2 2 2 2 2 3 5 6 6 6 6 5 4 4 3 3 3 3 3 3 3 3 3
22 22 19 16 13 12 10 8 7 6 5 3 1 0 0 0 0 0 0 2 3 3 2 2 2 3 4 4 4 4 4 4 3 3 3 3 3 3 3 2 2 2 1
15 15 14 11 10 9 7 5 4 4 4 3 1 0 0 0 0 0 0 1 2 3 3 2 3 3 3 3 3 3 3 3 3 3 3 3 3 2 1 1 1 1 0
10 10 9 8 6 5 3 3 3 3 3 3 2 1 0 0 0 0 0 0 1 2 2 2 2 2 2 3 3 3 3 3 3 3 3 3 3 1 0 0 0 0 0
6 6 6 6 4 2 0 1 2 2 3 3 3 1 1 0 0 0 0 0 0 1 1 1 1 1 1 1 2 3 3 3 3 3 3 3 2 1 0 0 0 0 0
4 4 4 4 3 1 0 0 1 1 1 2 2 2 2 1 1 1 1 1 0 0 0 0 0 0 0 0 1 1 2 2 2 2 2 2 1 0 0 0 0 0 0
3 3 3 3 2 1 0 0 0 0 0 1 1 2 2 2 2 2 2 2 1 0 0 0 0 0 0 0 0 0 1 1 1 1 1 1 0 0 0 0 0 0 0

GEFSGL_con_probscp_294.txt.gz
Probability
9 8 5 1 0 0 0 0 0 0 0 0 0 0 0 0 0 0 0 0 0 0 0 0 0 0 0 0 0 0 0 0 0 0 0 0 0 0 0 0 0 0 0
10 8 4 1 0 0 0 0 0 0 0 0 0 0 0 0 0 0 0 0 0 0 0 1 1 0 0 0 0 0 0 0 0 0 0 0 0 0 0 0 0 0 0
12 8 4 2 1 0 0 0 0 0 0 0 0 0 0 0 0 0 0 0 0 0 0 1 2 1 0 0 0 0 1 1 1 1 1 0 0 0 0 0 0 0 0
12 9 6 4 2 1 0 1 1 1 0 0 1 1 1 1 0 0 0 0 0 0 0 1 2 1 0 0 0 0 1 2 2 2 1 0 0 0 0 0 0 0 0
12 10 8 7 6 4 2 2 2 2 1 2 2 3 2 1 0 0 0 0 0 0 0 0 1 1 0 0 0 0 1 1 1 2 1 0 0 0 0 0 0 0 0
12 10 8 8 9 7 4 4 4 4 5 6 5 5 4 3 1 0 0 0 0 0 0 0 0 0 0 0 0 0 0 0 0 1 1 1 0 0 0 0 0 0 0
14 11 8 8 10 9 6 6 7 8 9 10 10 8 7 5 2 0 0 0 0 0 0 0 0 0 0 0 0 0 0 0 0 0 1 1 1 0 0 0 0 0 0
18 14 10 9 10 9 8 8 11 12 13 13 13 12 11 7 3 0 0 1 1 0 0 0 0 0 0 0 0 0 0 0 0 0 1 1 1 1 0 1 1 1 1
22 18 15 14 12 10 9 10 12 14 14 14 13 13 13 9 4 1 1 2 2 1 1 1 0 0 0 0 0 0 0 0 0 0 0 0 0 0 0 1 3 3 3
22 21 21 20 17 13 12 12 12 13 13 14 13 12 12 10 5 1 1 2 3 3 3 3 1 1 0 0 0 0 0 0 1 1 1 1 1 1 1 1 3 5 6
21 22 23 23 21 18 16 13 12 12 12 12 11 11 10 9 5 1 0 1 3 5 6 5 3 2 1 0 0 0 0 1 2 2 2 3 3 4 4 4 5 7 8
22 22 23 22 21 20 17 14 13 13 13 11 9 9 9 8 6 2 0 0 2 4 6 5 3 2 1 0 0 1 1 1 3 3 3 4 6 7 8 7 7 8 9
26 24 22 20 18 17 16 15 16 17 16 13 10 9 9 8 6 3 1 0 1 2 3 3 1 1 0 0 1 1 1 2 3 4 4 5 6 7 8 9 8 7 7
28 24 20 18 16 16 16 16 17 18 18 16 13 10 10 9 7 5 4 2 1 1 1 1 1 1 1 1 2 1 1 3 4 5 5 5 5 5 7 9 9 7 7
27 22 18 17 16 16 15 14 13 14 14 14 14 12 12 10 6 5 4 3 2 2 1 2 3 4 3 4 4 4 3 4 5 5 5 5 5 5 6 8 9 9 8
24 20 17 17 17 15 13 9 7 7 7 8 9 10 10 8 4 2 2 1 1 1 1 3 4 4 4 5 5 6 5 5 5 5 5 5 6 5 5 6 8 9 8
21 19 17 16 16 15 11 7 4 4 4 4 4 5 6 4 1 0 0 0 0 0 1 3 3 3 2 3 4 5 5 5 5 6 6 6 6 6 4 4 6 7 7
18 17 16 15 14 13 11 8 6 6 6 5 2 1 1 1 0 0 0 0 0 0 1 2 2 1 0 1 3 4 4 5 6 6 6 6 6 5 4 3 4 4 5
14 15 14 13 11 10 8 7 7 7 7 6 3 1 0 0 0 0 0 0 0 0 1 1 1 0 0 1 2 3 4 5 6 6 6 6 5 4 4 4 3 3 4
13 13 12 10 9 7 6 6 7 7 8 8 5 2 1 0 1 1 0 0 0 0 0 0 0 0 0 1 2 3 5 5 6 6 6 5 4 3 3 4 4 3 3
13 13 10 8 6 5 5 6 7 8 8 7 5 3 1 0 1 1 0 0 0 0 0 0 0 0 0 0 1 2 4 4 4 4 4 4 3 2 3 4 3 3 3
12 11 9 7 6 4 5 7 9 8 6 4 2 2 1 0 1 1 0 0 0 0 0 0 0 0 0 0 0 1 2 3 3 3 3 3 3 3 3 3 4 3 3
10 10 9 7 6 4 5 7 8 6 3 1 0 0 0 0 0 0 0 0 0 0 0 0 0 0 0 0 0 0 1 2 3 3 3 3 3 3 3 4 4 4 4
10 10 9 8 6 5 5 5 4 2 1 0 0 0 0 0 0 0 0 0 0 0 0 0 0 0 0 0 0 0 0 1 2 3 3 3 3 3 3 3 3 4 4
9 9 9 8 7 5 4 3 1 0 0 0 0 0 0 0 0 0 0 0 0 0 1 1 1 0 0 0 0 0 0 1 1 1 2 2 2 2 1 1 1 2 3
8 9 9 8 6 5 4 2 1 0 0 0 0 0 0 0 0 0 0 0 0 1 2 2 2 1 0 0 0 0 0 0 0 0 1 1 1 1 0 0 0 1 1

GEFSGL_con_probscp_300.txt.gz
Probability
10 9 9 13 15 13 11 8 5 3 2 3 4 5 7 7 6 5 4 4 4 4 3 2 1 0 0 2 4 4 4 4 2 1 1 0 0 1 2 2 1 0 0
13 10 9 12 13 13 11 9 7 5 3 3 5 7 8 7 5 4 4 4 5 4 4 3 2 1 1 3 4 4 4 3 2 1 1 0 0 1 3 2 1 0 0
17 14 11 11 12 12 11 10 8 7 6 5 6 8 9 7 5 4 5 5 4 4 4 4 3 2 2 3 4 4 4 2 1 0 0 0 1 3 4 2 1 1 1
21 18 15 13 12 11 11 9 7 7 7 8 8 9 10 9 7 6 6 5 4 4 3 3 2 1 1 2 3 4 3 2 0 0 0 0 2 5 6 3 1 1 1
26 23 20 17 12 10 11 11 9 7 8 10 11 11 12 11 9 8 7 7 7 6 5 4 2 1 0 1 1 2 2 1 0 0 1 2 4 7 8 5 2 1 0
31 28 25 20 14 12 13 14 13 11 11 13 14 14 14 12 9 7 7 8 9 9 9 8 5 3 2 1 1 0 1 1 0 1 3 5 7 8 9 8 4 2 1
33 31 29 25 22 19 18 17 16 14 13 14 15 15 16 14 9 6 5 7 10 12 13 11 8 5 5 5 4 2 2 1 1 2 4 6 8 9 10 10 8 4 3
35 36 35 32 29 28 26 23 19 15 13 14 16 18 19 16 9 4 3 6 10 13 13 12 10 8 7 7 7 7 6 5 3 2 3 4 5 7 9 10 9 6 4
39 40 40 37 35 34 32 30 25 18 14 15 18 20 20 16 8 2 2 7 12 13 13 11 10 9 7 6 9 10 10 8 5 3 2 1 1 3 5 8 9 9 7
41 43 43 41 39 38 37 34 30 23 17 16 19 21 19 15 8 2 2 8 13 13 13 13 10 7 5 4 7 12 12 10 7 6 5 4 3 4 5 8 12 13 12
43 44 44 41 39 41 41 36 31 27 22 20 21 21 20 16 10 3 3 8 12 14 16 15 11 6 2 1 4 9 10 9 9 9 9 9 9 10 10 12 14 15 14
43 44 43 40 39 40 41 37 32 29 26 24 23 23 22 18 12 5 3 5 10 15 18 17 13 6 2 0 2 4 4 5 9 11 11 12 13 14 13 13 14 14 13
41 42 41 40 39 39 39 37 32 29 27 25 23 23 22 19 14 10 5 3 6 12 17 16 10 4 1 0 0 1 1 4 9 11 11 12 14 15 13 11 11 11 10
39 40 39 38 37 37 37 34 30 27 25 24 24 23 22 20 17 14 10 7 6 9 13 12 6 3 3 3 3 3 4 5 9 11 11 11 13 14 13 11 9 8 7
40 40 38 35 34 35 34 29 25 22 21 21 22 21 20 18 15 14 13 11 10 10 11 9 7 6 6 7 7 7 7 7 9 9 9 10 11 12 12 11 9 7 6
39 40 37 34 34 33 30 24 18 15 13 13 14 15 14 12 10 9 9 9 7 8 9 9 8 7 6 7 8 9 8 8 7 7 7 8 8 9 10 10 9 7 6
37 37 35 33 32 30 27 22 16 11 8 6 6 7 7 5 4 4 4 3 2 4 8 9 8 6 5 5 6 7 8 7 6 5 5 6 6 7 7 8 7 7 6
32 32 31 30 29 28 27 24 19 13 9 6 4 3 3 2 1 1 1 2 3 4 7 9 9 8 6 6 6 6 7 6 5 4 3 4 5 6 6 6 6 6 6
27 28 28 28 26 26 25 23 18 13 10 6 3 2 1 0 1 1 1 4 6 6 7 8 9 8 7 7 7 6 6 5 4 3 3 3 4 5 6 6 6 6 6
24 24 24 24 22 21 20 20 16 11 8 5 2 2 1 0 2 3 4 6 8 7 5 5 6 6 7 7 7 6 5 4 3 3 3 3 3 4 6 6 6 6 6
21 21 20 19 18 16 16 16 13 10 7 5 2 1 0 0 2 4 5 5 5 5 3 3 3 4 5 6 6 5 4 3 3 3 3 3 3 4 5 6 6 6 6
19 19 18 16 15 12 12 12 11 9 8 6 3 1 0 1 2 3 3 2 2 1 1 1 1 1 2 3 3 3 3 2 3 3 3 3 4 4 4 4 5 6 6
16 16 16 16 15 12 11 11 10 9 7 6 5 2 1 1 2 1 1 0 0 0 0 0 0 0 0 0 1 1 1 1 1 2 2 2 3 3 3 3 3 5 6
13 13 14 15 14 14 12 11 10 7 5 5 5 3 1 1 1 0 0 0 1 1 0 0 0 0 0 0 0 0 0 0 0 1 1 1 1 1 1 1 1 2 4
10 10 10 11 12 14 13 11 10 7 5 5 4 2 1 1 1 1 0 0 1 1 0 0 0 0 0 0 0 0 0 0 0 0 0 0 0 0 0 0 0 0 1
8 8 8 9 11 13 12 11 10 8 6 6 4 1 1 2 2 2 1 0 1 1 0 0 0 0 0 0 0 0 0 0 0 0 0 0 0 0 0 0 0 0 0

GEFSGL_con_probscp_306.txt.gz
Probability
31 30 27 25 26 28 27 25 25 25 24 22 21 22 20 17 15 15 17 18 17 16 13 10 8 8 7 5 4 5 7 7 6 4 4 4 4 4 4 4 5 5 5
36 34 32 29 29 29 28 26 26 25 23 22 22 23 20 17 16 16 17 17 15 15 14 13 11 10 9 7 5 7 9 9 8 6 5 6 6 5 5 4 4 4 4
40 38 36 34 32 31 30 29 28 26 24 24 25 24 20 18 18 19 18 16 15 15 16 16 15 14 13 10 8 9 10 9 9 8 8 8 8 6 5 4 2 2 2
40 39 39 39 36 34 33 32 31 29 27 27 27 24 20 19 20 20 19 17 16 17 18 18 17 15 13 11 10 11 10 9 9 9 9 9 9 7 5 4 2 1 1
39 40 43 43 40 37 36 36 34 32 31 29 26 23 20 18 18 18 17 16 18 19 19 18 16 13 11 10 9 9 9 9 9 8 7 8 8 7 6 4 2 1 1
38 39 43 44 42 41 40 38 37 37 35 31 27 24 21 18 15 14 13 15 19 21 21 19 14 10 9 8 7 6 6 6 7 7 7 7 8 8 8 7 5 3 2
41 41 43 44 44 43 42 40 41 42 40 35 29 27 25 21 15 10 9 13 18 21 23 22 16 12 11 10 7 5 3 3 4 6 7 8 9 11 12 10 7 5 4
45 45 45 45 46 46 46 46 47 46 44 39 33 31 29 25 16 7 5 10 16 22 24 24 20 17 13 11 11 9 8 5 3 3 5 7 8 11 12 10 8 6 5
45 46 48 48 48 50 51 52 52 50 46 43 39 36 33 28 17 6 4 10 18 23 24 21 19 17 12 10 12 15 15 12 7 3 3 4 5 6 7 7 8 8 8
46 48 51 52 53 54 56 57 55 52 48 46 44 41 37 32 21 8 5 13 22 26 24 19 14 11 9 7 11 16 17 16 12 8 6 5 5 5 5 7 9 11 12
52 53 54 55 55 56 59 60 58 54 50 48 47 45 41 35 24 10 5 12 21 25 25 21 14 8 5 4 9 14 14 13 13 12 10 9 9 8 8 9 12 13 14
56 55 55 53 50 53 59 61 59 56 51 49 48 47 43 36 25 13 5 6 13 20 23 20 15 8 3 1 4 8 8 9 12 13 11 11 11 11 10 11 12 14 14
54 52 49 47 47 51 58 59 58 56 51 47 47 46 42 36 27 16 7 3 5 12 15 14 10 6 2 1 2 2 3 7 11 12 12 11 11 11 10 10 11 12 13
49 47 45 45 46 51 55 55 54 53 49 45 45 45 42 36 27 17 9 5 4 7 9 9 8 5 4 4 4 3 4 7 10 11 11 10 10 10 10 10 11 11 11
42 41 42 43 45 46 46 43 43 43 39 35 35 37 36 30 20 12 8 7 6 7 9 12 12 10 9 9 9 8 7 8 9 9 9 9 9 9 10 11 12 12 12
40 39 37 38 40 39 36 30 27 25 21 16 16 20 22 17 9 4 4 4 4 5 8 13 15 14 14 15 14 12 10 9 9 8 8 9 10 10 10 11 12 12 12
41 37 34 33 33 33 32 28 22 17 12 7 5 6 7 5 2 0 1 1 2 3 7 11 13 13 16 17 16 14 13 11 10 8 8 9 10 10 9 9 10 9 8
36 32 30 29 29 30 32 30 26 22 19 14 7 2 1 0 0 0 0 1 3 5 8 10 11 12 15 16 14 14 14 14 13 10 9 10 9 7 6 7 7 6 5
29 28 26 27 28 30 30 29 28 27 26 23 16 6 1 0 0 0 0 2 4 6 8 10 10 11 13 14 13 13 15 15 15 13 11 10 8 5 4 4 4 4 4
27 24 23 25 26 28 28 27 27 27 27 25 20 11 3 1 1 1 0 1 3 4 5 7 8 9 10 11 13 13 14 15 15 13 11 9 7 5 4 3 3 3 3
24 21 19 20 22 24 25 26 25 25 25 23 19 12 5 1 2 2 1 1 2 3 4 6 6 6 6 8 10 10 11 12 12 10 9 7 5 4 4 3 3 3 3
19 17 16 18 20 20 20 21 21 21 22 21 18 11 4 2 2 3 3 3 3 4 5 6 6 5 5 6 8 8 8 10 10 8 7 5 4 3 2 1 2 2 2
15 14 14 18 20 19 17 17 17 17 18 20 18 12 5 3 3 3 3 3 4 5 6 6 5 4 4 7 9 9 9 9 9 7 5 4 3 2 1 1 1 1 1
11 11 11 15 18 18 18 18 17 17 18 18 15 12 9 6 4 3 3 3 3 4 5 4 3 2 3 6 8 8 6 6 7 7 5 4 3 2 2 2 1 1 1
11 10 10 12 14 16 18 20 20 20 20 17 13 11 10 9 7 5 4 4 4 4 4 4 2 2 3 5 6 5 3 2 3 4 4 3 3 3 3 3 2 2 2
12 11 10 11 13 15 17 20 22 21 20 17 13 10 9 10 10 8 6 4 5 5 5 4 3 3 4 5 5 3 1 0 1 2 2 3 3 3 3 3 2 1 1

GEFSGL_con_probscp_312.txt.gz
Probability
8 9 11 11 11 10 9 11 11 10 7 5 5 5 3 1 1 2 2 2 1 2 1 1 1 1 2 2 1 0 0 0 0 0 0 0 0 0 0 0 0 0 0
12 12 13 14 16 15 13 14 15 13 9 7 6 5 4 2 2 3 3 3 3 4 4 3 3 2 3 3 2 1 0 0 0 0 0 0 0 0 0 0 0 0 0
17 16 15 16 18 18 16 15 14 12 10 9 7 5 4 3 4 6 6 5 5 7 7 6 5 4 4 3 3 2 0 0 0 0 0 0 0 0 0 0 0 0 0
19 17 16 15 16 16 15 13 11 10 10 10 9 7 5 3 5 8 9 8 9 10 11 9 6 5 5 4 3 2 1 0 0 0 0 0 0 0 0 0 0 0 0
22 21 19 16 16 14 12 10 9 9 10 11 11 10 8 6 7 10 11 11 12 14 13 12 9 7 6 4 3 3 2 1 1 1 0 0 0 1 1 0 0 0 0
25 25 24 21 17 15 13 11 11 11 12 13 13 13 13 10 9 10 10 11 13 15 14 14 12 9 6 5 3 3 2 2 2 2 1 1 1 1 2 1 0 0 0
25 25 25 24 21 18 18 18 16 15 15 15 15 16 17 14 11 9 9 9 11 12 12 12 12 9 7 6 4 3 2 3 3 3 3 2 1 1 2 2 1 0 0
25 24 24 24 24 24 24 23 21 19 16 16 16 17 18 15 11 8 7 8 9 9 9 10 9 8 7 7 6 4 3 3 3 3 3 2 1 0 1 1 1 0 1
23 23 22 23 26 27 25 23 22 20 18 17 17 16 16 14 10 6 4 5 7 7 7 7 8 7 6 7 7 6 4 3 3 2 2 2 1 0 0 1 1 2 2
22 22 22 23 25 26 24 23 23 22 19 17 16 15 16 13 9 5 3 4 6 7 7 7 7 6 5 4 5 6 5 4 3 3 2 1 1 1 1 1 2 3 3
24 24 24 24 25 25 25 25 24 23 20 17 15 14 14 12 9 5 2 3 6 8 7 7 7 6 3 2 3 4 4 4 4 4 3 3 2 2 2 1 2 2 3
30 29 28 26 25 25 26 27 26 25 22 19 17 16 13 11 8 5 2 2 5 8 8 7 6 4 1 0 1 2 2 2 4 4 4 4 4 4 3 3 2 3 3
34 32 30 27 24 23 24 27 28 27 24 22 21 19 15 12 10 7 2 1 2 4 6 5 4 3 1 0 0 0 0 1 3 4 4 5 5 5 4 4 3 3 3
34 32 29 25 22 21 22 24 26 26 24 23 22 21 18 15 13 10 4 1 1 2 2 2 2 2 2 2 3 2 1 1 2 3 4 5 6 6 6 5 4 4 4
32 29 26 24 21 20 20 20 21 21 20 19 19 18 17 14 12 9 5 3 2 2 1 0 1 2 5 6 6 5 3 3 3 4 5 6 7 7 8 6 6 5 5
28 26 25 24 23 21 20 19 17 14 11 10 11 12 11 10 7 4 3 3 2 2 1 1 1 3 6 7 7 6 5 5 5 5 6 6 7 8 9 8 6 5 5
23 23 22 22 22 20 18 17 15 10 5 3 3 4 5 5 2 1 1 1 1 1 2 2 3 4 5 6 6 5 4 4 4 4 4 5 5 6 6 6 5 5 4
20 19 18 19 19 18 17 15 13 11 7 3 1 1 1 1 0 0 0 0 1 1 3 3 3 4 4 4 3 3 1 1 1 1 1 2 2 2 2 3 4 5 5
16 16 16 17 17 16 15 14 13 13 10 5 1 0 0 0 0 0 0 1 2 3 3 3 3 3 3 2 1 1 0 0 0 0 0 0 0 0 0 1 3 4 4
14 14 15 17 16 15 14 13 13 13 11 6 3 1 0 0 0 0 1 2 3 3 3 3 2 2 1 1 0 0 0 0 0 0 0 0 0 0 0 1 2 3 3
12 12 13 15 15 14 13 13 13 12 10 7 4 2 0 0 1 1 1 2 2 2 2 1 1 1 0 0 0 0 0 0 0 0 0 0 0 0 0 0 1 1 2
11 11 11 12 12 12 12 12 12 10 9 7 3 1 0 0 0 0 1 1 1 1 1 0 0 0 0 0 0 0 0 0 0 0 0 0 0 0 0 0 0 0 1
10 10 10 10 11 11 11 11 11 9 7 5 2 0 0 0 0 0 0 0 0 0 0 0 0 0 0 0 0 0 0 0 0 0 0 0 0 0 0 0 0 0 0
9 9 9 9 9 9 9 10 10 9 7 4 2 0 0 0 0 0 0 0 0 0 0 0 0 0 0 0 0 0 0 0 0 0 0 0 0 0 0 0 0 0 0
7 7 8 8 8 7 8 9 9 9 7 5 3 1 0 0 0 1 1 1 0 0 0 0 0 0 0 0 0 0 0 0 0 0 0 0 0 0 0 0 0 0 0
5 6 7 7 7 6 7 8 9 9 7 6 3 1 0 0 1 2 2 2 1 0 0 0 0 0 0 0 0 0 0 0 0 0 0 0 0 0 0 0 0 0 0